This demonstration page uses our WeatherBlox Daily Observations layout. Learn more.

Left ArrowRight Arrow

Hourly Observations for November 30, 2019

Temp ( °F °C ) Dew Point ( °F °C ) Humidity (%) Winds ( mph kmh ) Pressure ( in mb ) Visibility ( mi km ) Precip ( " mm )
12:53 am 00:53 Cloudy 52 11.1 45 7.2 77 77 Calm 30.06 1018 10 16 0.00 0.00
1:53 am 01:53 Cloudy 54 12.2 45 7.2 72 72 Calm 30.04 1017 10 16 0.00 0.00
2:53 am 02:53 Cloudy 54 12.2 44 6.7 69 69 SW 5 7 30.03 1017 10 16 0.00 0.00
3:26 am 03:26 Partly Cloudy 53 11.7 43 6.1 69 69 Calm 30.03 1017 10 16 0.00 0.00
3:53 am 03:53 Partly Cloudy 52 11.1 44 6.7 75 75 Calm 30.01 1016 10 16 0.00 0.00
4:53 am 04:53 Mostly Clear 50 10 44 6.7 80 80 Calm 30.01 1016 10 16 0.00 0.00
5:53 am 05:53 Cloudy 50 10 46 7.8 86 86 Calm 30.01 1016 10 16 0.00 0.00
6:53 am 06:53 Cloudy 52 11.1 45 7.2 77 77 Calm 30.01 1016 10 16 0.00 0.00
7:53 am 07:53 Cloudy 51 10.6 46 7.8 83 83 Calm 30.03 1017 10 16 0.00 0.00
8:53 am 08:53 Cloudy 54 12.2 46 7.8 75 75 WSW 3 6 30.02 1017 10 16 0.00 0.00
9:53 am 09:53 Cloudy 57 13.9 46 7.8 67 67 SSW 3 6 30.02 1017 10 16 0.00 0.00
1:53 pm 13:53 Partly Cloudy 72 22.2 46 7.8 40 40 VRB 3 6 29.87 1012 10 16 0.00 0.00
2:53 pm 14:53 Mostly Sunny 73 22.8 48 8.9 41 41 SW 8 13 29.84 1011 10 16 0.00 0.00
3:53 pm 15:53 Mostly Cloudy 73 22.8 48 8.9 41 41 SSW 7 11 29.83 1010 10 16 0.00 0.00
5:53 pm 17:53 Cloudy 71 21.7 50 10 47 47 SSW 5 7 29.84 1010 10 16 0.00 0.00
6:53 pm 18:53 Cloudy 70 21.1 51 10.6 51 51 S 3 6 29.83 1010 10 16 0.00 0.00
8:53 pm 20:53 Mostly Cloudy 67 19.4 52 11.1 59 59 SSE 8 13 29.80 1009 10 16 0.00 0.00
9:53 pm 21:53 Cloudy 66 18.9 53 11.7 63 63 SSW 5 7 29.80 1009 10 16 0.00 0.00
10:53 pm 22:53 Clear 67 19.4 54 12.2 63 63 S 13 20 29.77 1008 10 16 0.00 0.00
11:53 pm 23:53 Clear 66 18.9 55 12.8 68 68 SW 7 11 29.75 1008 10 16 0.00 0.00

Powered by AerisWeather